Weather History for KFMN - April, 2013

Change the Weather History Date:

Wednesday, April 17, 2013

  Actual Average Record
Temperature  
Mean Temperature 42 °F -  
Max Temperature 53 °F 64 °F 78 °F (1990)
Min Temperature 32 °F 33 °F 21 °F (2015)
Degree Days  
Heating Degree Days 22    
Moisture  
Dew Point 18 °F    
Average Humidity 35    
Maximum Humidity 55    
Minimum Humidity 16    
Precipitation  
Precipitation 0.00 in - - ()
Sea Level Pressure  
Sea Level Pressure 29.76 in    
Wind  
Wind Speed 11 mph (West)    
Max Wind Speed 24 mph    
Max Gust Speed 38 mph    
Visibility 10 miles    
Events Rain    
Averages and records for this station are not official NWS values.
T = Trace of Precipitation, MM = Missing Value Source: NWS Daily Summary

Daily Weather History Graph

Daily Weather History Graph

Search for Another Location

Airport or City:

Trip Planner

Search our weather history database for the weather conditions in past years. The results will help you decide how hot, cold, wet, or windy it might be!

Date:

Astronomy

Apr. 17, 2013 Rise Set
Actual Time 6:35 AM MDT 7:49 PM MDT
Civil Twilight 6:09 AM MDT 8:16 PM MDT
Nautical Twilight 5:37 AM MDT 8:48 PM MDT
Astronomical Twilight 5:03 AM MDT 9:21 PM MDT
Moon 11:55 AM MDT (4/17) 1:26 AM MDT (4/17)
Length of Visible Light 14h 07m
Length of Day
13h 13m
Waxing Crescent, 43% of the Moon is Illuminated
Apr 17
Waxing Crescent
Apr 18
First Quarter
Apr 25
Full
May 2
Last Quarter
May 9
New

Hourly Weather History & Observations

Time (MDT) Temp. Windchill Dew Point Humidity Pressure Visibility Wind Dir Wind Speed Gust Speed Precip Events Conditions
12:53 AM 48.9 °F - 21.9 °F 35% 29.63 in 10.0 mi WSW 6.9 mph - N/A   Widespread Dust
1:53 AM 46.0 °F 41.9 °F 21.0 °F 37% 29.62 in 10.0 mi WSW 8.1 mph - N/A   Widespread Dust
2:53 AM 44.1 °F - 21.0 °F 40% 29.62 in 10.0 mi Calm Calm - N/A   Widespread Dust
3:53 AM 43.0 °F 39.5 °F 21.9 °F 43% 29.61 in 10.0 mi SSW 5.8 mph - N/A   Widespread Dust
4:53 AM 42.1 °F 38.4 °F 21.9 °F 45% 29.63 in 10.0 mi West 5.8 mph - N/A   Widespread Dust
5:53 AM 42.1 °F 38.4 °F 23.0 °F 47% 29.65 in 10.0 mi WSW 5.8 mph - N/A   Widespread Dust
6:53 AM 39.0 °F 34.8 °F 24.1 °F 55% 29.67 in 10.0 mi SW 5.8 mph - N/A   Widespread Dust
8:53 AM 46.0 °F 38.8 °F 19.9 °F 35% 29.68 in 10.0 mi SW 18.4 mph 26.5 mph N/A   Widespread Dust
9:53 AM 46.0 °F 38.5 °F 18.0 °F 33% 29.68 in 10.0 mi SSW 19.6 mph - N/A   Mostly Cloudy
10:53 AM 42.1 °F 32.3 °F 24.1 °F 49% 29.72 in 10.0 mi West 24.2 mph 33.4 mph 0.00 in Rain Light Rain
11:53 AM 43.0 °F 35.4 °F 23.0 °F 45% 29.73 in 10.0 mi NW 16.1 mph 26.5 mph 0.00 in   Overcast
12:53 PM 45.0 °F 36.4 °F 19.9 °F 37% 29.74 in 10.0 mi WNW 23.0 mph 32.2 mph N/A   Mostly Cloudy
1:53 PM 48.0 °F - 18.0 °F 30% 29.73 in 10.0 mi WNW 24.2 mph 32.2 mph N/A   Partly Cloudy
2:53 PM 48.0 °F - 16.0 °F 28% 29.75 in 10.0 mi WNW 19.6 mph 38.0 mph N/A   Clear
3:53 PM 48.9 °F - 15.1 °F 26% 29.75 in 10.0 mi West 23.0 mph 38.0 mph N/A   Scattered Clouds
4:53 PM 45.0 °F 36.9 °F 14.0 °F 29% 29.78 in 10.0 mi WNW 20.7 mph 31.1 mph N/A   Partly Cloudy
5:53 PM 45.0 °F 36.4 °F 15.1 °F 30% 29.81 in 10.0 mi WNW 23.0 mph 34.5 mph N/A   Partly Cloudy
6:53 PM 42.1 °F 33.9 °F 15.1 °F 34% 29.85 in 10.0 mi WNW 17.3 mph 28.8 mph N/A   Clear
7:53 PM 37.9 °F 30.0 °F 14.0 °F 38% 29.87 in 10.0 mi NNW 12.7 mph 23.0 mph N/A   Clear
8:53 PM 36.0 °F 28.5 °F 14.0 °F 41% 29.91 in 10.0 mi NW 10.4 mph - N/A   Clear
9:53 PM 34.0 °F 26.0 °F 14.0 °F 44% 29.96 in 10.0 mi WNW 10.4 mph 23.0 mph N/A   Clear
10:53 PM 33.1 °F 22.2 °F 12.0 °F 42% 29.99 in 10.0 mi West 17.3 mph 23.0 mph N/A   Clear
11:53 PM 32.0 °F 21.6 °F 9.0 °F 38% 30.01 in 10.0 mi WNW 15.0 mph 21.9 mph N/A   Clear